Terug naar catalogus

CZ-3C DEB

ActiefGTO
NORAD 39339·DEBRIS·🇨🇳 China

Gelanceerd Oct 31, 2010 vanaf Xichang Satellite Launch Center

Loading…

TLE

VerouderdSource: Space-Track

Epoch: Sep 14, 2026, 02:03 UTC

1 39339U 10057D   26257.08583046  .00000059  00000-0  35834-2 0  9995
2 39339  20.5399 230.0096 7197044 256.0451 205.6655  2.14573381101221

Volg CZ-3C DEB in realtime met AllMySat

Download on the App Store